• In Uzbekistan
  • List of Countries
  • For 7 days
  • Water Temperature
  • Satellite Maps
  • Weather Map
  • Weather Widgets
  • user-avatar
    Login

    Hourly Weather Kabwe

    Today, 12 December, Wednesday

    Time Temperature Precipitation Wind Pressure Humidity
    00:00 +21°C° 0 mm 1 mps 661 mmHg 89%
    01:00 +20°C° 0 mm 1 mps 661 mmHg 91%
    02:00 +20°C° 0 mm 1 mps 661 mmHg 89%
    03:00 +20°C° 0 mm 1 mps 661 mmHg 91%
    04:00 +20°C° 0 mm 1 mps 661 mmHg 92%
    05:00 +20°C° 0 mm 1 mps 661 mmHg 93%
    06:00 +20°C° 0 mm 2 mps 662 mmHg 87%
    07:00 +23°C° 0 mm 2 mps 662 mmHg 81%
    08:00 +24°C° 0 mm 2 mps 663 mmHg 73%
    09:00 +26°C° 0.1 mm 2 mps 663 mmHg 65%
    10:00 +28°C° 0.1 mm 2 mps 664 mmHg 56%
    11:00 +30°C° 0.1 mm 2 mps 664 mmHg 48%
    12:00 +31°C° 0.1 mm 2 mps 663 mmHg 44%
    13:00 +32°C° 0.1 mm 1 mps 663 mmHg 41%
    14:00 +31°C° 0 mm 2 mps 663 mmHg 44%
    15:00 +30°C° 0.1 mm 2 mps 662 mmHg 46%
    16:00 +29°C° 0.1 mm 2 mps 662 mmHg 48%
    17:00 +28°C° 0.1 mm 2 mps 662 mmHg 51%
    18:00 +27°C° 0.3 mm 2 mps 662 mmHg 59%
    19:00 +25°C° 0.3 mm 2 mps 662 mmHg 66%
    20:00 +23°C° 0.3 mm 2 mps 662 mmHg 74%
    21:00 +23°C° 0.2 mm 2 mps 662 mmHg 77%
    22:00 +22°C° 0.2 mm 1 mps 662 mmHg 80%
    23:00 +21°C° 0.2 mm 1 mps 663 mmHg 83%

    Tomorrow, 13 December, Thursday

    Time Temperature Precipitation Wind Pressure Humidity
    00:00 +21°C° 0.1 mm 1 mps 662 mmHg 85%
    01:00 +21°C° 0.1 mm 1 mps 662 mmHg 86%
    02:00 +21°C° 0.1 mm 1 mps 662 mmHg 88%
    03:00 +21°C° 0.1 mm 1 mps 662 mmHg 89%
    04:00 +21°C° 0.1 mm 1 mps 662 mmHg 90%
    05:00 +20°C° 0.1 mm 1 mps 662 mmHg 91%
    06:00 +21°C° 0 mm 1 mps 663 mmHg 86%
    07:00 +22°C° 0 mm 1 mps 663 mmHg 82%
    08:00 +24°C° 0 mm 1 mps 664 mmHg 77%
    09:00 +26°C° 0 mm 2 mps 664 mmHg 66%
    10:00 +28°C° 0 mm 2 mps 665 mmHg 55%
    11:00 +30°C° 0 mm 2 mps 665 mmHg 43%
    12:00 +30°C° 0 mm 2 mps 664 mmHg 42%
    13:00 +31°C° 0 mm 2 mps 664 mmHg 40%
    14:00 +31°C° 0 mm 2 mps 663 mmHg 38%
    15:00 +30°C° 0 mm 3 mps 663 mmHg 39%
    16:00 +30°C° 0 mm 3 mps 662 mmHg 41%
    17:00 +30°C° 0 mm 3 mps 662 mmHg 42%
    18:00 +28°C° 0 mm 2 mps 662 mmHg 48%
    19:00 +26°C° 0 mm 2 mps 662 mmHg 54%
    20:00 +24°C° 0 mm 2 mps 662 mmHg 61%
    21:00 +23°C° 0 mm 1 mps 662 mmHg 63%
    22:00 +23°C° 0 mm 1 mps 663 mmHg 66%
    23:00 +22°C° 0 mm 1 mps 663 mmHg 69%

    Day after tomorrow, 14 December, Friday

    Time Temperature Precipitation Wind Pressure Humidity
    00:00 +22°C° 0.1 mm 1 mps 663 mmHg 73%
    01:00 +22°C° 0.1 mm 1 mps 662 mmHg 77%
    02:00 +21°C° 0.1 mm 1 mps 662 mmHg 80%
    03:00 +21°C° 0 mm 1 mps 662 mmHg 83%
    04:00 +21°C° 0 mm 1 mps 662 mmHg 85%
    05:00 +20°C° 0 mm 1 mps 662 mmHg 87%
    06:00 +22°C° 0 mm 1 mps 663 mmHg 80%
    07:00 +24°C° 0 mm 2 mps 664 mmHg 73%
    08:00 +25°C° 0 mm 2 mps 664 mmHg 66%
    09:00 +27°C° 0.1 mm 2 mps 664 mmHg 59%
    10:00 +29°C° 0.1 mm 3 mps 664 mmHg 52%
    11:00 +31°C° 0.1 mm 3 mps 665 mmHg 45%
    12:00 +31°C° 0.3 mm 3 mps 664 mmHg 45%
    13:00 +31°C° 0.3 mm 3 mps 663 mmHg 44%
    14:00 +31°C° 0.3 mm 3 mps 662 mmHg 44%
    15:00 +30°C° 0.2 mm 3 mps 662 mmHg 46%
    16:00 +30°C° 0.2 mm 3 mps 662 mmHg 49%
    17:00 +29°C° 0.2 mm 3 mps 661 mmHg 51%
    18:00 +27°C° 0.1 mm 3 mps 662 mmHg 58%
    19:00 +26°C° 0.1 mm 2 mps 662 mmHg 65%
    20:00 +24°C° 0.1 mm 2 mps 662 mmHg 72%
    21:00 +23°C° 0.5 mm 2 mps 662 mmHg 76%
    22:00 +23°C° 0.5 mm 2 mps 663 mmHg 81%
    23:00 +21°C° 0.5 mm 2 mps 663 mmHg 85%

    15 December, Saturday

    Time Temperature Precipitation Wind Pressure Humidity
    00:00 +21°C° 0.3 mm 2 mps 662 mmHg 86%
    01:00 +21°C° 0.3 mm 1 mps 662 mmHg 88%
    02:00 +21°C° 0.3 mm 1 mps 661 mmHg 89%
    03:00 +21°C° 0.4 mm 1 mps 662 mmHg 90%
    04:00 +21°C° 0.4 mm 1 mps 662 mmHg 91%
    05:00 +20°C° 0.4 mm 1 mps 662 mmHg 91%
    06:00 +20°C° 0.1 mm 2 mps 662 mmHg 87%
    07:00 +21°C° 0.1 mm 2 mps 663 mmHg 83%
    08:00 +23°C° 0.1 mm 2 mps 664 mmHg 78%
    09:00 +25°C° 0.7 mm 2 mps 664 mmHg 73%
    10:00 +26°C° 0.7 mm 2 mps 664 mmHg 68%
    11:00 +27°C° 0.7 mm 2 mps 664 mmHg 63%
    12:00 +28°C° 1.9 mm 2 mps 663 mmHg 64%
    13:00 +28°C° 1.9 mm 2 mps 663 mmHg 65%
    14:00 +28°C° 1.9 mm 2 mps 662 mmHg 66%
    15:00 +27°C° 2.7 mm 1 mps 661 mmHg 71%
    16:00 +26°C° 2.7 mm 1 mps 661 mmHg 76%
    17:00 +25°C° 2.7 mm 1 mps 660 mmHg 81%
    18:00 +24°C° 1.3 mm 1 mps 661 mmHg 84%
    19:00 +23°C° 1.3 mm 1 mps 661 mmHg 86%
    20:00 +22°C° 1.3 mm 1 mps 662 mmHg 88%
    21:00 +22°C° 0.7 mm 1 mps 662 mmHg 89%
    22:00 +22°C° 0.7 mm 1 mps 662 mmHg 91%
    23:00 +22°C° 0.7 mm 1 mps 662 mmHg 92%

    16 December, Sunday

    Time Temperature Precipitation Wind Pressure Humidity
    00:00 +21°C° 1.6 mm 1 mps 662 mmHg 93%
    01:00 +21°C° 1.6 mm 1 mps 662 mmHg 93%
    02:00 +21°C° 1.6 mm 1 mps 661 mmHg 94%
    03:00 +21°C° 1.6 mm 1 mps 661 mmHg 94%
    04:00 +21°C° 1.6 mm 1 mps 661 mmHg 94%
    05:00 +21°C° 1.6 mm 1 mps 662 mmHg 94%
    06:00 +21°C° 0.9 mm 1 mps 662 mmHg 93%
    07:00 +21°C° 0.9 mm 1 mps 663 mmHg 92%
    08:00 +22°C° 0.9 mm 1 mps 663 mmHg 91%
    09:00 +23°C° 0.7 mm 1 mps 663 mmHg 87%
    10:00 +24°C° 0.7 mm 2 mps 663 mmHg 82%
    11:00 +25°C° 0.7 mm 2 mps 663 mmHg 77%
    12:00 +25°C° 0.7 mm 2 mps 663 mmHg 75%
    13:00 +26°C° 0.7 mm 2 mps 662 mmHg 72%
    14:00 +26°C° 0.7 mm 1 mps 662 mmHg 70%
    15:00 +26°C° 0.7 mm 1 mps 661 mmHg 72%
    16:00 +26°C° 0.7 mm 1 mps 661 mmHg 73%
    17:00 +25°C° 0.7 mm 1 mps 661 mmHg 75%
    18:00 +24°C° 0.6 mm 1 mps 661 mmHg 79%
    19:00 +23°C° 0.6 mm 1 mps 661 mmHg 84%
    20:00 +22°C° 0.6 mm 1 mps 662 mmHg 88%
    21:00 +22°C° 0.5 mm 1 mps 662 mmHg 89%
    22:00 +21°C° 0.5 mm 1 mps 662 mmHg 89%
    23:00 +21°C° 0.5 mm 1 mps 662 mmHg 90%

    17 December, Monday

    Time Temperature Precipitation Wind Pressure Humidity
    00:00 +21°C° 0.1 mm 1 mps 661 mmHg 91%
    01:00 +20°C° 0.1 mm 1 mps 661 mmHg 92%
    02:00 +20°C° 0.1 mm 1 mps 661 mmHg 92%
    03:00 +20°C° 0.1 mm 1 mps 661 mmHg 93%
    04:00 +20°C° 0.1 mm 1 mps 661 mmHg 94%
    05:00 +20°C° 0.1 mm 1 mps 661 mmHg 94%
    06:00 +20°C° 0.4 mm 1 mps 662 mmHg 93%
    07:00 +21°C° 0.4 mm 1 mps 663 mmHg 91%
    08:00 +20°C° 0.4 mm 2 mps 663 mmHg 90%
    09:00 +21°C° 1 mm 2 mps 663 mmHg 89%
    10:00 +21°C° 1 mm 2 mps 663 mmHg 87%
    11:00 +23°C° 1 mm 2 mps 663 mmHg 86%
    12:00 +23°C° 1 mm 2 mps 662 mmHg 83%
    13:00 +24°C° 1 mm 2 mps 662 mmHg 80%
    14:00 +25°C° 1 mm 3 mps 661 mmHg 77%
    15:00 +25°C° 0.9 mm 3 mps 661 mmHg 77%
    16:00 +24°C° 0.9 mm 3 mps 661 mmHg 78%
    17:00 +24°C° 0.9 mm 3 mps 661 mmHg 79%
    18:00 +23°C° 0.4 mm 2 mps 661 mmHg 83%
    19:00 +21°C° 0.4 mm 2 mps 661 mmHg 86%
    20:00 +20°C° 0.4 mm 2 mps 662 mmHg 90%
    21:00 +20°C° 0.1 mm 1 mps 662 mmHg 91%
    22:00 +20°C° 0.1 mm 1 mps 662 mmHg 92%
    23:00 +19°C° 0.1 mm 1 mps 662 mmHg 93%
    Show more